EUTELSAT 65 WEST A (41382 NORAD) Tracking and Keplerian Element Data

This shows tracking and keplerian element data for the satellite.

Feedback or suggestion? Click here.




ElementValue
Catalog41382
NameEUTELSAT 65 WEST A
Epoch Orbit856
Epoch Day198.36132134
Epoch Year2018
RAAN19.7069
Inclination0.0448
Eccentricity0.0002042
Argument of Perigee93.6871
Mean Anonmoly246.6094
Mean Motion1.00271884
Decay Rate-2.96E-06
L11 41382U 16014A 18198.36132134 -.00000296 00000-0 00000-0 0 9998
L22 41382 0.0448 19.7069 0002042 93.6871 246.6094 1.00271884 8561

Live tracking and technical data element details for EUTELSAT 65 WEST A (NORAD 41382). EUTELSAT 65 WEST A can be tracked NOW for your location showing map with azimuth and elevation plus other details from your city location.

Track the satellite on the map from your city or location and see movement details for azimuth, elevation, latitude, longitude, range, height, and movement on the map or in text.







IsCatalogInMostPopularTable: catalog: 41382, numindb: 58
Update: records affected: 1



GetName: 41382 EUTELSAT 65 WEST A

Hit Count: updated at: Thu, 19 Jul 2018 21:19:52 GMT